Regional Weather Roundup
Issued by NWS

Home | Current Version | Previous Version | Graphics & Text | Print | Product List | Glossary On
Versions: 1 2 3 4 5 6 7 8 9 10 11 12 13 14 15 16 17 18 19 20 21 22 23 24 25 26 27 28 29 30 31 32 33 34 35 36 37 38 39 40 41 42 43 44 45 46 47 48 49 50
000
ASUS43 KLOT 061710
RWRIL

ILLINOIS REGIONAL WEATHER ROUNDUP
NATIONAL WEATHER SERVICE CHICAGO/ROMEOVILLE IL
1100 AM CST FRI MAR 06 2015

NOTE: "FAIR" INDICATES FEW OR NO CLOUDS BELOW 12,000 FEET WITH NO
SIGNIFICANT WEATHER AND/OR OBSTRUCTIONS TO VISIBILITY.

* THESE STATIONS ARE NOT UNDER NWS QUALITY CONTROL. THEY ALSO MAY NOT
  REPORT WEATHER SUCH AS PRECIPITATION OR FOG.

ILZ001-002-007-009-015-016-024-061800-
NORTHWEST ILLINOIS

CITY           SKY/WX    TMP DP  RH WIND       PRES   REMARKS
MOLINE         SUNNY     26  12  55 S13G25    30.26F WCI  15
STERLING*      SUNNY     21  10  63 S7G17     30.29F WCI  13
SAVANNA*       PTSUNNY   22  11  62 S13       30.27F WCI   9
$$

ILZ003-004-008-010-011-017-018-061800-
NORTH CENTRAL ILLINOIS

CITY           SKY/WX    TMP DP  RH WIND       PRES   REMARKS
ROCKFORD       PTSUNNY   18   8  65 S21       30.30F WCI   1
FREEPORT*      MOSUNNY   17   9  70 S13       30.28F WCI   3
ROCHELLE*      SUNNY     17  10  73 S18       30.29F WCI   1
DE KALB*       MOSUNNY   15   7  71 S26       30.31F WCI  -4
PERU*          SUNNY     21  11  65 S22G30    30.32F WCI   5
$$

ILZ005-006-012>014-019>023-061800-
NORTHEAST ILLINOIS

CITY           SKY/WX    TMP DP  RH WIND       PRES   REMARKS
CHICAGO-OHARE  PTSUNNY   19   7  59 S18       30.34F WCI   4
CHICAGO-MIDWAY MOSUNNY   19   6  57 S21       30.37F WCI   3
AURORA         SUNNY     18   7  62 S16       30.34F WCI   3
LANSING*       MOSUNNY   16   6  64 S17       30.41F WCI   0
JOLIET*        SUNNY     19   8  61 S15G21    30.38F WCI   5
WAUKEGAN       MOSUNNY   21   7  54 S16       30.29F WCI   7
DUPAGE AIRPORT SUNNY     17   6  62 S18G29    30.33F WCI   1
KANKAKEE*      SUNNY     17   8  67 S16G22    30.42F WCI   2
WHEELING       MOSUNNY   21   6  52 S16       30.34F WCI   7
MORRIS*        PTSUNNY   17  10  73 S17       30.36F WCI   2
ROMEOVILLE*    SUNNY     18   8  64 S15G24    30.37F WCI   4
NORTHERLY ISL    N/A     17   4  56 S15         N/A  WCI   3
$$

LMZ740>746-061800-
SOUTHERN LAKE MICHIGAN

STATION/POSITION SKY/WX   TEMP    WIND        PRES    VSBY  WAVE
                          AIR SEA DIR/SP/G                  HT/PER
                          (F)     (DEG/KT/KT) (MB)    (MI)  (FT/S)
WAUKEGAN HARBOR            20                   N/A
HARRISON CRIB              16     200/ 26/ 31   N/A
BURNHAM HARBOR             18     190/ 12/ 19   N/A
CALUMET HARBOR             16     190/ 11/ 18 1027.6F
MICHIGAN CITY              14     170/ 15/ 21   N/A
$$

ILZ025>027-034>036-040-047-049-050-058-095>099-061800-
WEST-CENTRAL ILLINOIS

CITY           SKY/WX    TMP DP  RH WIND       PRES   REMARKS
QUINCY         SUNNY     31  17  56 S16       30.29F WCI  20
GALESBURG*     SUNNY     26  15  62 S15       30.28F WCI  14
MACOMB*        MOSUNNY   27  18  68 S15       30.31F WCI  15
JACKSONVILLE*  SUNNY     28  14  57 S16       30.35F WCI  15
PITTSFIELD*    SUNNY     31  17  55 S15G23    30.33F WCI  21
$$

ILZ028>032-037-038-041>044-048-051>054-059>061-061800-
CENTRAL ILLINOIS

CITY           SKY/WX    TMP DP  RH WIND       PRES   REMARKS
PONTIAC        MOSUNNY   19  11  74 S17       30.38F WCI   3
BLOOMINGTON    PTSUNNY   19  11  71 S22       30.36F WCI   2
DECATUR        PTSUNNY   20   9  62 S22       30.42F WCI   3
PEORIA         SUNNY     24  12  60 S18G24    30.33F WCI  10
LACON*         MOSUNNY   23  10  56 S14       30.31F WCI  11
LINCOLN*       MOSUNNY   22  11  63 S18G24    30.41F WCI   8
SPRINGFIELD    MOSUNNY   24  13  62 S16       30.38F WCI  11
TAYLORVILLE    SUNNY     21  10  63 S18G25    30.42F WCI   6
$$

ILZ033-039-045-046-055>057-062-063-061800-
EAST-CENTRAL ILLINOIS

CITY           SKY/WX    TMP DP  RH WIND       PRES   REMARKS
CHAMPAIGN      MOSUNNY   16   8  71 S20       30.44F WCI  -1
DANVILLE*      SUNNY     17   6  62 S15       30.43F WCI   3
RANTOUL*       SUNNY     19  10  69 S16       30.44F WCI   4
MATTOON        SUNNY     18   6  59 S17       30.46F WCI   3
PARIS*         SUNNY     20   9  62 S12       30.50F WCI   8
$$

ILZ079-100>102-061800-
SOUTHWEST ILLINOIS

CITY           SKY/WX    TMP DP  RH WIND       PRES   REMARKS
ALTON          SUNNY     28  12  50 SE12      30.44F WCI  18
BELLEVILLE     SUNNY     27  15  58 SE8       30.46F WCI  19
CAHOKIA*       SUNNY     31  18  58 S10       30.46F WCI  22
SPARTA*        SUNNY     24  11  57 S13G18    30.51F WCI  12
$$

ILZ064>066-069>071-074>076-080>082-084>086-088>090-092>094-061800-
SOUTH-CENTRAL ILLINOIS

CITY           SKY/WX    TMP DP  RH WIND       PRES   REMARKS
CARBONDALE     SUNNY     23   9  55 S9        30.56F WCI  13
CAIRO*         SUNNY     24  11  58 S6        30.61F WCI  17
EFFINGHAM*     SUNNY     22   5  48 SE10      30.52F WCI  11
MT. VERNON     SUNNY     25  12  58 S9        30.54F WCI  15
CENTRALIA*     SUNNY     25  10  54 S13       30.51F WCI  13
SALEM*         SUNNY     25  10  53 S12       30.51F WCI  14
METROPOLIS*    SUNNY     24  10  55 S3        30.59F
$$

ILZ067-068-072-073-078-083-087-091-061800-
SOUTHEAST ILLINOIS

CITY           SKY/WX    TMP DP  RH WIND       PRES   REMARKS
LAWRENCEVILLE  SUNNY     20  10  65 S8        30.57F WCI  10
FLORA*         SUNNY     20   9  61 S12       30.54F WCI   8
FAIRFIELD*     SUNNY     19   8  62 S9        30.55F WCI   9
HARRISBURG*    SUNNY     22   9  56 SW6       30.59F WCI  14
ROBINSON*      SUNNY     21   6  53 S9        30.55F WCI  10
CARMI*         SUNNY     21  11  66 S8        30.58S WCI  11
$$

ABBREVIATIONS USED IN REMARKS
   TC - TEMPERATURE IN CELSIUS
  WCI - WIND CHILL INDEX
   HX - HEAT INDEX
  VSB - VISIBILITY
$$



USA.gov is the U.S. government's official web portal to all federal, state and local government web resources and services.